• In Hungary
  • List of Countries
  • For 7 days
  • Water Temperature
  • Satellite Maps
  • Weather Map
  • News
  • Weather Widgets
  • user-avatar
    Login

    Hourly Weather Beinasco

    Today, 19 January, Friday

    Time Temperature Precipitation Wind Pressure Humidity
    00:00 +6°C° 0.1 mm 2 mps 735 mmHg 82%
    01:00 +5°C° 0 mm 2 mps 734 mmHg 83%
    02:00 +5°C° 0 mm 2 mps 734 mmHg 82%
    03:00 +5°C° 0 mm 2 mps 734 mmHg 82%
    04:00 +6°C° 0 mm 2 mps 734 mmHg 81%
    05:00 +5°C° 0 mm 2 mps 733 mmHg 81%
    06:00 +5°C° 0 mm 2 mps 733 mmHg 81%
    07:00 +5°C° 0 mm 2 mps 733 mmHg 81%
    08:00 +6°C° 0.1 mm 2 mps 733 mmHg 79%
    09:00 +6°C° 0.1 mm 2 mps 733 mmHg 78%
    10:00 +7°C° 0.1 mm 2 mps 733 mmHg 77%
    11:00 +8°C° 0 mm 2 mps 733 mmHg 72%
    12:00 +9°C° 0 mm 2 mps 734 mmHg 68%
    13:00 +10°C° 0 mm 2 mps 734 mmHg 63%
    14:00 +10°C° 0 mm 2 mps 734 mmHg 63%
    15:00 +10°C° 0 mm 2 mps 734 mmHg 62%
    16:00 +9°C° 0 mm 2 mps 734 mmHg 62%
    17:00 +8°C° 0 mm 2 mps 735 mmHg 62%
    18:00 +5°C° 0 mm 3 mps 735 mmHg 62%
    19:00 +4°C° 0 mm 3 mps 736 mmHg 62%
    20:00 +4°C° 0.1 mm 3 mps 736 mmHg 62%
    21:00 +4°C° 0.1 mm 3 mps 736 mmHg 62%
    22:00 +4°C° 0.1 mm 3 mps 737 mmHg 62%
    23:00 +4°C° 0.1 mm 3 mps 737 mmHg 62%

    Tomorrow, 20 January, Saturday

    Time Temperature Precipitation Wind Pressure Humidity
    00:00 +5°C° 0.1 mm 2 mps 737 mmHg 63%
    01:00 +4°C° 0.1 mm 2 mps 737 mmHg 64%
    02:00 +4°C° 0 mm 2 mps 737 mmHg 64%
    03:00 +4°C° 0 mm 2 mps 737 mmHg 64%
    04:00 +3°C° 0 mm 2 mps 737 mmHg 65%
    05:00 +3°C° 0 mm 2 mps 737 mmHg 64%
    06:00 +3°C° 0 mm 2 mps 737 mmHg 63%
    07:00 +2°C° 0 mm 2 mps 737 mmHg 63%
    08:00 +3°C° 0 mm 2 mps 737 mmHg 61%
    09:00 +4°C° 0 mm 2 mps 737 mmHg 60%
    10:00 +5°C° 0 mm 2 mps 737 mmHg 59%
    11:00 +6°C° 0.1 mm 2 mps 736 mmHg 58%
    12:00 +7°C° 0.1 mm 2 mps 736 mmHg 57%
    13:00 +9°C° 0.1 mm 1 mps 735 mmHg 56%
    14:00 +7°C° 0.4 mm 2 mps 734 mmHg 59%
    15:00 +7°C° 0.4 mm 2 mps 734 mmHg 62%
    16:00 +7°C° 0.4 mm 2 mps 733 mmHg 65%
    17:00 +6°C° 0.6 mm 2 mps 733 mmHg 67%
    18:00 +6°C° 0.6 mm 2 mps 732 mmHg 69%
    19:00 +5°C° 0.6 mm 2 mps 732 mmHg 71%
    20:00 +5°C° 0.5 mm 2 mps 732 mmHg 73%
    21:00 +5°C° 0.5 mm 2 mps 732 mmHg 74%
    22:00 +5°C° 0.5 mm 2 mps 732 mmHg 76%
    23:00 +5°C° 0.3 mm 2 mps 732 mmHg 78%

    Day after tomorrow, 21 January, Sunday

    Time Temperature Precipitation Wind Pressure Humidity
    00:00 +4°C° 0.3 mm 2 mps 732 mmHg 79%
    01:00 +4°C° 0.3 mm 2 mps 732 mmHg 81%
    02:00 +4°C° 0.4 mm 2 mps 732 mmHg 81%
    03:00 +4°C° 0.4 mm 2 mps 732 mmHg 81%
    04:00 +4°C° 0.4 mm 2 mps 732 mmHg 81%
    05:00 +4°C° 0.4 mm 2 mps 732 mmHg 81%
    06:00 +5°C° 0.4 mm 2 mps 733 mmHg 80%
    07:00 +5°C° 0.4 mm 2 mps 733 mmHg 79%
    08:00 +6°C° 0.3 mm 2 mps 733 mmHg 76%
    09:00 +7°C° 0.3 mm 2 mps 733 mmHg 74%
    10:00 +8°C° 0.3 mm 2 mps 733 mmHg 71%
    11:00 +9°C° 0.3 mm 2 mps 733 mmHg 70%
    12:00 +10°C° 0.3 mm 2 mps 733 mmHg 68%
    13:00 +12°C° 0.3 mm 3 mps 733 mmHg 66%
    14:00 +13°C° 0.3 mm 2 mps 733 mmHg 67%
    15:00 +12°C° 0.3 mm 2 mps 733 mmHg 69%
    16:00 +12°C° 0.3 mm 2 mps 733 mmHg 70%
    17:00 +12°C° 0.3 mm 2 mps 734 mmHg 70%
    18:00 +10°C° 0.3 mm 2 mps 734 mmHg 71%
    19:00 +9°C° 0.3 mm 2 mps 735 mmHg 72%
    20:00 +9°C° 0.1 mm 2 mps 735 mmHg 72%
    21:00 +9°C° 0.1 mm 2 mps 735 mmHg 73%
    22:00 +9°C° 0.1 mm 2 mps 736 mmHg 74%
    23:00 +8°C° 0 mm 2 mps 736 mmHg 77%

    22 January, Monday

    Time Temperature Precipitation Wind Pressure Humidity
    00:00 +8°C° 0 mm 2 mps 736 mmHg 79%
    01:00 +7°C° 0 mm 2 mps 737 mmHg 82%
    02:00 +7°C° 0 mm 2 mps 737 mmHg 83%
    03:00 +6°C° 0 mm 2 mps 737 mmHg 84%
    04:00 +6°C° 0 mm 2 mps 737 mmHg 85%
    05:00 +6°C° 0 mm 2 mps 738 mmHg 86%
    06:00 +6°C° 0 mm 2 mps 738 mmHg 86%
    07:00 +5°C° 0 mm 2 mps 738 mmHg 87%
    08:00 +6°C° 0 mm 2 mps 738 mmHg 86%
    09:00 +7°C° 0 mm 2 mps 739 mmHg 85%
    10:00 +7°C° 0 mm 2 mps 739 mmHg 84%
    11:00 +8°C° 0 mm 2 mps 739 mmHg 83%
    12:00 +9°C° 0 mm 2 mps 739 mmHg 82%
    13:00 +9°C° 0 mm 2 mps 739 mmHg 81%
    14:00 +9°C° 0 mm 2 mps 739 mmHg 81%
    15:00 +9°C° 0 mm 2 mps 739 mmHg 80%
    16:00 +9°C° 0 mm 2 mps 739 mmHg 80%
    17:00 +8°C° 0 mm 2 mps 739 mmHg 81%
    18:00 +8°C° 0 mm 2 mps 739 mmHg 82%
    19:00 +7°C° 0 mm 2 mps 739 mmHg 83%
    20:00 +7°C° 0 mm 2 mps 739 mmHg 83%
    21:00 +7°C° 0 mm 2 mps 740 mmHg 83%
    22:00 +7°C° 0 mm 2 mps 740 mmHg 83%
    23:00 +7°C° 0 mm 2 mps 740 mmHg 83%

    23 January, Tuesday

    Time Temperature Precipitation Wind Pressure Humidity
    00:00 +7°C° 0 mm 2 mps 740 mmHg 83%
    01:00 +7°C° 0 mm 2 mps 740 mmHg 83%
    02:00 +7°C° 0 mm 2 mps 740 mmHg 82%
    03:00 +7°C° 0 mm 2 mps 741 mmHg 81%
    04:00 +7°C° 0 mm 2 mps 741 mmHg 80%
    05:00 +6°C° 0 mm 2 mps 741 mmHg 79%
    06:00 +6°C° 0 mm 2 mps 742 mmHg 79%
    07:00 +6°C° 0 mm 2 mps 742 mmHg 78%
    08:00 +7°C° 0 mm 2 mps 743 mmHg 76%
    09:00 +8°C° 0 mm 2 mps 743 mmHg 74%
    10:00 +9°C° 0 mm 2 mps 743 mmHg 71%
    11:00 +10°C° 0 mm 2 mps 743 mmHg 69%
    12:00 +12°C° 0 mm 2 mps 743 mmHg 67%
    13:00 +14°C° 0 mm 2 mps 743 mmHg 66%
    14:00 +13°C° 0 mm 2 mps 743 mmHg 66%
    15:00 +13°C° 0 mm 2 mps 744 mmHg 67%
    16:00 +13°C° 0 mm 1 mps 744 mmHg 68%
    17:00 +11°C° 0 mm 1 mps 744 mmHg 66%
    18:00 +10°C° 0 mm 1 mps 745 mmHg 65%
    19:00 +8°C° 0 mm 1 mps 745 mmHg 63%
    20:00 +8°C° 0 mm 1 mps 745 mmHg 62%
    21:00 +8°C° 0 mm 1 mps 746 mmHg 61%
    22:00 +8°C° 0 mm 1 mps 746 mmHg 61%
    23:00 +8°C° 0 mm 1 mps 746 mmHg 62%

    24 January, Wednesday

    Time Temperature Precipitation Wind Pressure Humidity
    00:00 +8°C° 0 mm 1 mps 746 mmHg 63%
    01:00 +8°C° 0 mm 1 mps 746 mmHg 64%
    02:00 +7°C° 0 mm 1 mps 746 mmHg 64%
    03:00 +7°C° 0 mm 1 mps 746 mmHg 65%
    04:00 +7°C° 0 mm 1 mps 746 mmHg 66%
    05:00 +7°C° 0 mm 1 mps 746 mmHg 66%
    06:00 +7°C° 0 mm 1 mps 746 mmHg 66%
    07:00 +7°C° 0 mm 1 mps 746 mmHg 66%
    08:00 +8°C° 0 mm 1 mps 746 mmHg 66%
    09:00 +9°C° 0 mm 1 mps 746 mmHg 67%
    10:00 +9°C° 0 mm 1 mps 747 mmHg 67%
    11:00 +10°C° 0 mm 1 mps 746 mmHg 70%
    12:00 +11°C° 0 mm 1 mps 746 mmHg 73%
    13:00 +11°C° 0 mm 1 mps 746 mmHg 76%
    14:00 +11°C° 0 mm 1 mps 746 mmHg 76%
    15:00 +11°C° 0 mm 1 mps 745 mmHg 75%
    16:00 +11°C° 0 mm 1 mps 745 mmHg 75%
    17:00 +10°C° 0 mm 1 mps 746 mmHg 76%
    18:00 +9°C° 0 mm 1 mps 746 mmHg 76%
    19:00 +8°C° 0 mm 1 mps 746 mmHg 77%
    20:00 +7°C° 0 mm 1 mps 746 mmHg 75%
    21:00 +7°C° 0 mm 1 mps 746 mmHg 74%
    22:00 +7°C° 0 mm 1 mps 746 mmHg 72%
    23:00 +7°C° 0 mm 1 mps 746 mmHg 71%
    Show more